Terminal Aerodrome Forecast
Issued by NWS Blacksburg, VA

Current Version | Previous Version | Graphics & Text | Print | Product List | Glossary On
Versions: 1 2 3 4 5 6 7 8 9 10 11 12 13 14 15 16 17 18 19 20 21 22 23 24 25
000
FTUS41 KRNK 281142
TAFBLF
TAF
KBLF 281142Z 2812/2912 15005KT P6SM BKN250
     FM281700 23005KT P6SM SCT040 BKN250
     FM290100 VRB04KT P6SM SCT035 BKN100 OVC150
     FM291000 VRB03KT 4SM -DZ BR BKN025 OVC050=

USA.gov is the U.S. government's official web portal to all federal, state and local government web resources and services.